Location: Fort Frances
(48.6170°N, 93.4170°W)
Time: 21:26:13
(UTC-06:00)

Daily predictions for brighter satellites

Satellite Brightness Start Highest point End
(mag) Time Altitude Azimuth Time Altitude Azimuth Time Altitude Azimuth
USA 215 3.3 16:45:01 10° ESE 16:51:34 84° NNE 16:58:09 10° NW
NOSS 3-1 (A) 4.3 16:46:54 10° WSW 16:52:37 43° NNW 16:59:10 10° NE
CSL-04 Debris 4.4 16:51:02 10° SE 16:56:09 46° ENE 17:01:18 10° N
Cosmos 1975 2.8 16:53:04 10° N 16:57:08 78° E 17:01:11 10° SSE
Cosmos 1428 Rocket 4.5 16:51:41 10° N 16:57:52 68° ENE 17:03:58 10° SSE
Cosmos 2263 Rocket 4.0 16:57:19 10° N 16:59:00 11° NNE 17:00:41 10° NE
ISS -1.5 16:56:42 10° W 16:59:35 28° SW 17:02:27 10° SSE
Cosmos 724 4.3 16:54:07 10° NNW 16:59:53 62° NE 17:05:38 10° SE
COSMO-SKYMED 1 4.4 17:03:25 10° ENE 17:05:21 13° E 17:07:16 10° ESE
Cosmos 2150 Rocket 4.1 17:01:52 10° SSW 17:07:20 79° ESE 17:12:47 10° NNE
AQUARIUS 4.4 17:03:32 10° SE 17:07:50 47° ENE 17:12:09 10° N
Meteor 1-28 Rocket 4.4 17:05:26 10° NE 17:08:32 24° E 17:11:38 10° SSE
CENTAUR R/B 3.6 17:02:22 10° NW 17:09:17 38° NNE 17:16:52 10° E
SJ 16-02 2.5 17:06:19 10° SSE 17:09:51 24° E 17:13:24 10° NE
CSL-04 Rocket 3.7 17:06:01 10° SSE 17:11:26 67° ENE 17:16:55 10° N
CZ-2C R/B 3.1 17:06:43 10° S 17:11:51 63° WSW 17:16:57 10° NNW
Meteor 1-18 Rocket 4.4 17:06:18 10° SSW 17:11:54 83° WNW 17:17:39 10° N
Cosmos 1975 Rocket 3.2 17:10:12 10° S 17:14:42 88° WNW 17:19:13 10° N
NOSS 2-3 (C) 4.3 17:10:10 10° SW 17:14:57 65° NW 17:20:46 10° NE
IRAS Rocket 4.2 17:11:48 10° SSE 17:17:15 75° ENE 17:22:46 10° NNW
Cosmos 2369 Rocket 4.3 17:16:17 10° W 17:20:04 18° NW 17:23:52 10° N
Cosmos 1743 2.7 17:16:13 10° N 17:20:08 90° ENE 17:24:02 10° S
Cosmos 2279 Rocket 4.0 17:14:23 10° S 17:20:38 79° E 17:26:56 10° NNE
Cosmos 1697 Rocket 3.9 17:17:55 10° SSE 17:22:16 23° ESE 17:25:53 13° ENE
CZ-4 R/B 1.4 17:24:56 10° SSE 17:28:44 53° ENE 17:32:38 10° N
Radarsat 4.5 17:24:28 10° SSE 17:29:38 74° ENE 17:34:52 10° NNW
SPOT 3 Rocket 4.2 17:27:25 10° ESE 17:31:54 31° ENE 17:36:23 10° N
Cosmos 2082 3.7 17:26:43 10° NNW 17:32:23 87° ENE 17:38:01 10° SSE
Cosmos 1025 Rocket 4.4 17:29:56 10° SE 17:32:58 19° E 17:34:10 17° ENE
Ariane Rocket 3.0 17:28:57 10° SSE 17:34:01 87° ENE 17:39:06 10° NNW
Meteor 1-19 Rocket 4.2 17:29:57 10° S 17:35:39 74° E 17:41:29 10° NNE
Gblst 52 Del rocket 4.2 17:31:42 10° WNW 17:37:16 87° SSW 17:43:19 10° ESE
Cosmos 2251 Rocket 4.4 17:33:22 10° N 17:37:49 26° NE 17:42:13 10° ESE
ERS-2 3.0 17:36:30 10° SE 17:39:40 28° ENE 17:42:52 10° N
USA 238 DEB 4.5 17:34:05 10° NW 17:41:02 60° WSW 17:48:03 10° SSE
USA 238 4.4 17:34:10 10° NW 17:41:09 60° WSW 17:48:10 10° SSE
SMAP 3.1 17:37:04 10° SSE 17:41:44 83° WSW 17:46:26 10° NNW
Cosmos 1536 Rocket 3.5 17:38:40 10° S 17:42:56 59° E 17:47:13 10° NNE
Cosmos 2227 Rocket 2.7 17:37:41 10° NNW 17:43:18 65° WSW 17:48:53 10° SSE
Cosmos 1269 Rocket 3.9 17:38:18 10° NNW 17:43:39 76° ENE 17:48:56 10° SSE
Cosmos 1937 Rocket 4.4 17:38:55 10° SW 17:43:53 46° WNW 17:48:52 10° NNE
Cosmos 1125 Rocket 3.6 17:42:03 10° S 17:47:14 59° ESE 17:51:49 13° NNE
CORIOLIS 4.2 17:42:19 10° SSE 17:47:44 87° WSW 17:53:09 10° NNW
Okean 2 4.3 17:46:34 10° SSE 17:50:00 26° E 17:50:50 24° ENE
Cosmos 1271 Rocket 4.3 17:47:48 10° NNW 17:51:21 38° W 17:54:56 10° SSW
Cosmos 1048 Rocket 4.2 17:46:10 10° NNW 17:51:34 79° WSW 17:56:56 10° SSE
DNEPR-1 R/B 4.1 17:47:16 10° NNW 17:52:04 54° NE 17:57:49 10° ESE
SKYMED 2 4.2 17:51:25 20° NE 17:53:52 35° E 17:57:53 10° SSE
MTI 4.5 17:56:22 32° E 17:56:36 33° E 17:59:35 10° SSE
Meteor 2-9 Rocket 4.3 17:51:09 10° NNW 17:56:42 77° W 18:02:03 10° S
ALOS 2.5 17:52:26 10° SE 17:56:52 45° ENE 18:01:19 10° N
Cosmos 1606 Rocket 4.5 17:54:06 10° NNE 18:02:52 - SE 17:57:16 26° ENE
Cosmos 372 Rocket 3.9 17:53:40 10° SSW 17:58:50 70° ESE 18:02:59 16° NNE
Cosmos 1943 Rocket 4.4 17:56:16 10° WNW 17:59:35 16° NW 18:02:55 10° N
Cosmos 1980 Rocket 3.0 17:58:49 10° SSE 18:03:38 29° ESE 18:05:03 26° E
USA 161 4.4 18:02:25 10° NNW 18:04:26 17° WNW 18:06:31 10° WSW
NOSS 3-2 (A) 4.4 18:01:47 10° NW 18:09:11 69° SW 18:17:15 10° SSE
Cosmos 2297 Rocket 3.2 18:04:13 10° NW 18:09:37 48° WSW 18:15:01 10° S
NOSS 5 (C) 4.2 18:07:39 10° SW 18:11:14 84° SE 18:11:57 51° NE
Meteor 1-23 Rocket 4.2 18:06:38 10° S 18:12:20 71° E 18:18:00 10° NNE
Cosmos 1656 3.5 18:07:45 10° SSW 18:13:18 80° ESE 18:17:01 22° NNE
MOS 1 4.2 18:07:53 10° SSE 18:13:34 80° ENE 18:19:16 10° NNW
Cosmos 2266 Rocket 4.3 18:11:01 10° NNW 18:17:04 68° W 18:23:11 10° S
NOSS 3-2 (C) 4.2 18:10:08 10° NW 18:17:34 76° SW 18:25:44 10° SSE
ATLAS 3B R/B 4.3 18:15:07 10° NW 18:21:00 34° WSW 18:26:45 10° S
USA 116 3.4 18:20:45 33° N 18:21:58 67° WNW 18:25:02 10° SSW
Abrixas rocket 2.1 18:23:40 10° W 18:26:50 83° WSW 18:26:50 83° WSW
ATLAS 2AS CENTAUR R/B 3.5 18:19:38 10° WSW 18:27:28 58° NW 18:33:20 20° NE
YAOGAN 1 3.4 18:24:44 10° S 18:28:56 51° W 18:33:11 10° NNW
Cosmos 2227 4.2 18:24:39 10° NNW 18:30:23 63° ENE 18:34:03 22° SE
NOAA 12 4.0 18:25:50 10° SSE 18:31:05 85° ENE 18:36:23 10° NNW
COSMO-SKYMED 1 2.6 18:40:01 31° N 18:42:03 77° WNW 18:46:23 10° SSW
S3M 4.1 18:38:38 10° SSE 18:44:08 45° E 18:44:08 45° E
Cosmos 2263 Rocket 2.9 18:39:28 10° NNW 18:43:35 34° NNE 18:43:35 34° NNE
RESURS DK-1 4.1 18:42:06 10° S 18:43:45 21° SSE 18:43:45 21° SSE
SL-16 R/B 4.3 18:42:09 10° SSE 18:42:32 12° SSE 18:42:32 12° SSE
FENGYUN 3A 3.8 18:41:25 10° S 18:46:47 72° WSW 18:52:10 10° NNW
DMSP B5D1-3 4.4 18:46:35 50° NE 18:47:53 72° ESE 18:52:59 10° S
SJ 16-02 2.5 18:44:04 10° SW 18:48:13 40° WNW 18:50:32 23° N
NOSS 3-4 (A) 3.4 18:42:11 10° SSW 18:48:24 77° SE 18:50:24 46° NE
NOSS 3-4 (C) 3.4 18:42:16 10° SSW 18:48:29 76° SE 18:50:27 47° NE
Cosmos 2369 4.4 18:45:05 10° SW 18:50:38 52° NW 18:53:59 24° N
Cosmos 2278 4.3 18:45:11 10° SW 18:50:45 54° WNW 18:54:02 24° NNE
Cosmos 2322 Rocket 4.4 18:46:24 10° SSE 18:46:37 11° SSE 18:46:37 11° SSE
COSMOS 2455 3.8 18:46:14 10° NNW 18:50:36 30° NNE 18:50:36 30° NNE
Cosmos 2360 4.1 18:49:55 10° SSW 18:55:34 65° ESE 18:55:57 63° E
EO 1 Del DPAF 3.7 18:57:25 60° W 18:57:25 60° W 19:00:55 10° SSW
BREEZE-M DEB (TANK) 3.2 18:56:35 10° W 18:59:33 89° NNE 18:59:42 84° E
CENTAUR R/B 3.0 18:53:05 10° NW 19:00:54 87° SW 19:06:43 23° SE
CZ-4 R/B 4.5 19:01:49 10° SW 19:04:08 15° W 19:06:30 10° NW
Cosmos 1697 Rocket 3.0 19:00:10 10° SW 19:05:46 64° WNW 19:07:40 41° N
Cosmos 1025 Rocket 4.0 19:06:07 10° SSW 19:10:14 45° WNW 19:11:07 39° NW
ERS-2 4.4 19:10:17 10° SSW 19:13:20 24° W 19:16:24 10° NW
SL-08 R/B 4.5 19:07:02 10° N 19:13:21 83° W 19:19:33 10° S
Okean 1-7 Rocket 4.3 19:12:42 10° SSW 19:16:54 52° W 19:16:54 52° W
Cosmos 1553 Rocket 3.9 19:10:52 10° S 19:17:17 86° E 19:19:12 49° NNE
Cosmos 2251 Rocket 4.1 19:15:17 10° NNW 19:20:27 56° WSW 19:23:02 28° S
Cosmos 1417 Rocket 4.5 19:14:28 10° SSW 19:20:39 80° W 19:23:34 34° N
Cosmos 1745 Rocket 4.0 19:20:22 10° N 19:26:36 81° W 19:32:51 10° S
ALOS 4.5 19:30:44 10° SSW 19:34:30 24° W 19:38:19 10° NW
Gbstr 26 Del rocket 4.1 19:29:15 10° WSW 19:37:08 85° NNW 19:37:13 84° N
Cosmos 1980 Rocket 2.9 19:41:48 10° SW 19:46:52 51° WNW 19:46:52 51° WNW
ATLAS 2AS CENTAUR R/B 4.3 20:13:17 10° WNW 20:20:15 30° NNW 20:20:46 30° N
Cosmos 2263 Rocket 4.3 20:23:26 10° NW 20:25:19 21° NW 20:25:19 21° NW
